This is the latest recevied weather packets stored in our database for station/object DC4AT. If no packets are shown the sender has not sent any weather packets the latest 10 day(s).
| Time | Temp. | Humidity | Pressure | Rain* | Wind** | Luminosity | Snow |
|---|---|---|---|---|---|---|---|
| 1788601029 | 17.78° C | 68% | 1018.7 hPa | 0 mm | - | 671 W/m² | - |
| 1788600429 | 17.78° C | 69% | 1018.7 hPa | 0 mm | - | 374 W/m² | - |
| 1788599829 | 17.22° C | 71% | 1018.7 hPa | 0 mm | - | 577 W/m² | - |
| 1788599229 | 17.22° C | 73% | 1018.7 hPa | 0 mm | - | 141 W/m² | - |
| 1788598629 | 17.22° C | 73% | 1018.6 hPa | 0 mm | - | 156 W/m² | - |
| 1788598029 | 17.22° C | 74% | 1018.6 hPa | 0 mm | - | 236 W/m² | - |
| 1788597429 | 16.67° C | 77% | 1018.5 hPa | 0 mm | - | 262 W/m² | - |
| 1788596829 | 16.67° C | 78% | 1018.4 hPa | 0 mm | - | 178 W/m² | - |
| 1788596229 | 16.67° C | 79% | 1018.4 hPa | 0 mm | - | 120 W/m² | - |
| 1788595630 | 16.11° C | 80% | 1018.3 hPa | 0 mm | - | 452 W/m² | - |
| 1788595030 | 16.11° C | 81% | 1018.2 hPa | 0 mm | - | 396 W/m² | - |
| 1788594430 | 15.56° C | 82% | 1017.9 hPa | 0 mm | - | 90 W/m² | - |
| 1788593830 | 15.56° C | 84% | 1017.8 hPa | 0 mm | - | 234 W/m² | - |
| 1788593230 | 15° C | 84% | 1017.7 hPa | 0 mm | - | 234 W/m² | - |
| 1788592630 | 15° C | 85% | 1017.7 hPa | 0 mm | - | 98 W/m² | - |
| 1788592030 | 14.44° C | 86% | 1017.6 hPa | 0 mm | - | 214 W/m² | - |
| 1788591430 | 14.44° C | 86% | 1017.6 hPa | 0 mm | - | 69 W/m² | - |
| 1788590830 | 13.89° C | 87% | 1017.4 hPa | 0 mm | - | 171 W/m² | - |
| 1788590230 | 13.89° C | 87% | 1017.4 hPa | 0 mm | - | 42 W/m² | - |
| 1788589630 | 13.33° C | 87% | 1017.3 hPa | 0 mm | - | 42 W/m² | - |
| 1788589030 | 13.33° C | 87% | 1017.3 hPa | 0 mm | - | 28 W/m² | - |
| 1788588430 | 13.33° C | 87% | 1017.3 hPa | 0 mm | - | 26 W/m² | - |
| 1788587830 | 13.33° C | 87% | 1017.3 hPa | 0 mm | - | 107 W/m² | - |
| 1788587230 | 13.33° C | 87% | 1017.3 hPa | 0 mm | - | 83 W/m² | - |
| 1788586630 | 13.33° C | 87% | 1017.1 hPa | 0 mm | - | 39 W/m² | - |
* Rain latest hour (hover to see other rain measurements)
** Current wind speed in m/s (hover to see current wind gust speed)